{"data":{"norad_id":56024,"intl_designator":"2023-042AQ","name":"STARLINK-5772","alt_names":[],"object_type":"PAYLOAD","status":"ACTIVE","operator":null,"country":"US","launch_date":"2023-03-24","launch_site_code":"AFETR","launch_vehicle":null,"mission":null,"orbit_class":"UNKNOWN","rcs_meters":null,"size_class":null,"mass_kg":null,"dimensions":null,"purposes":["comms"],"wikipedia_slug":null,"has_3d_model":false,"image_url":null,"decayed_at":null,"tle_current":{"epoch":"2026-05-24T23:11:27.678048Z","epoch_age_seconds":81485,"freshness":"FRESH","line1":"1 56024U 23042AQ  26144.96629257  .00000094  00000+0  12921-4 0  9992","line2":"2 56024  43.0040 334.2275 0001084 270.1978  89.8750 15.27578260174702","mean_motion":15.2757826,"eccentricity":0.0001084,"inclination_deg":43.004,"raan_deg":334.2275,"arg_perigee_deg":270.1978,"mean_anomaly_deg":89.875,"bstar":1.2921e-5,"rev_number":17470,"period_min":94.266856088931,"perigee_km":482.31055309297,"apogee_km":483.79805936816,"semimajor_km":6861.1913062306,"source":"CELESTRAK","updated_at":"2026-05-25T13:38:17.949237Z"}}}